Wind_Speed
20 20 20 20 20 21 21 21 21 22 24 23 23 23 24 24 25 25 25 25 26 26 26 26 27 27 28 29 30 31 31 32 32 32 33 33 32 32 32 32 32 33 33 34 34 34 34 35 35 35 35 35 35 35 35 35 35 35 35 35 35 35 35 36 36 36 36 36 36 36 36 36 36 36 36 36 36 36 36 36 37 37 37 38 38 38
20 20 20 20 20 21 22 21 21 21 23 24 24 24 25 26 26 26 25 25 25 25 25 26 27 28 28 29 30 31 31 31 31 31 31 31 31 31 32 32 33 33 34 34 34 35 35 35 35 35 35 35 35 35 35 35 35 35 35 35 36 36 36 36 36 36 36 36 36 36 36 36 36 36 36 36 36 36 36 36 36 37 37 37 37 38
20 21 20 20 20 21 22 22 22 22 23 24 25 25 26 26 26 26 25 24 24 24 25 25 27 28 29 30 30 30 30 30 30 30 30 31 31 32 32 33 33 34 34 34 35 35 35 35 35 35 35 34 35 35 35 35 35 35 36 36 36 36 36 36 36 36 36 36 36 36 36 36 36 36 36 36 36 36 36 36 37 36 36 36 36 37
20 20 21 21 21 21 22 22 23 23 24 24 25 26 26 26 25 24 24 24 24 25 25 26 27 28 29 29 28 28 28 28 29 29 30 31 32 32 33 33 33 34 34 34 34 34 34 34 34 34 34 34 34 34 35 35 35 35 36 36 36 36 36 36 36 36 36 36 36 36 36 36 36 36 36 36 36 36 36 36 36 35 35 35 36 36
20 20 21 21 21 22 22 22 23 24 24 25 25 25 25 24 24 23 23 23 24 25 26 26 26 27 27 27 27 27 27 28 29 30 31 31 32 32 33 33 33 33 34 34 34 34 34 34 34 34 34 34 35 35 35 35 35 35 36 36 36 36 36 36 36 36 36 36 36 36 36 36 35 35 35 35 35 36 36 36 35 35 35 36 36 37
21 21 21 22 22 22 23 23 23 24 24 24 24 23 23 23 22 22 22 23 24 25 26 26 26 26 26 26 26 27 28 28 29 30 31 32 32 32 32 32 33 33 33 34 34 34 34 34 34 34 34 35 35 35 35 35 35 35 35 35 35 35 35 35 35 35 35 35 35 35 35 35 35 35 35 35 36 36 36 36 36 36 36 36 37 38
22 22 21 22 23 23 23 23 23 24 24 24 23 22 21 20 21 22 23 24 25 26 26 26 26 26 26 26 26 27 28 28 29 30 31 31 31 31 32 32 32 33 33 34 34 34 34 34 34 34 34 34 34 35 35 35 35 35 35 35 35 35 35 35 35 35 35 35 35 35 35 35 35 35 35 35 35 35 36 36 36 36 36 37 37 38
23 23 22 22 23 24 24 23 23 22 22 22 21 20 20 21 22 23 24 25 25 25 25 25 25 25 25 25 26 26 27 28 29 30 30 30 30 31 31 31 32 33 33 34 34 34 34 33 34 34 34 34 34 34 34 34 34 34 34 34 34 34 34 34 34 34 34 34 34 34 34 34 34 34 34 34 34 34 35 35 35 35 36 36 36 37
23 23 23 22 21 22 24 24 22 20 19 19 19 19 20 23 24 25 24 24 25 25 25 25 25 25 25 25 26 26 27 28 29 29 30 30 30 31 31 32 32 33 33 33 33 33 33 33 33 33 33 33 33 34 34 34 34 34 34 33 33 33 33 33 34 34 34 34 34 33 33 33 33 33 33 33 33 33 34 34 34 35 35 35 35 36
22 21 22 22 21 21 21 22 21 19 17 17 18 20 21 24 25 26 26 25 25 25 25 25 25 25 26 26 26 26 27 28 29 30 30 30 30 31 31 31 32 32 32 32 32 32 32 32 32 32 32 33 33 33 33 33 33 33 33 33 33 33 33 33 33 33 33 33 33 33 33 32 32 32 32 32 33 33 33 33 33 34 34 35 35 35
21 21 21 22 22 21 19 19 19 18 18 19 21 23 23 24 25 25 25 25 25 24 24 24 24 25 25 26 26 27 27 28 29 29 29 29 29 29 29 30 30 30 30 30 30 30 30 31 31 31 32 32 32 33 33 33 32 32 32 32 32 32 32 32 32 32 32 32 32 32 32 32 32 32 32 33 33 33 33 33 33 34 34 34 35 35
20 21 21 21 20 19 18 18 18 19 21 22 23 24 24 24 24 24 24 24 24 24 24 24 24 25 25 26 27 27 27 27 28 28 28 28 27 27 27 27 28 28 28 28 29 29 29 30 30 31 32 32 32 32 32 31 31 31 31 31 31 31 31 31 31 31 31 31 32 32 32 32 33 33 33 33 34 34 34 34 34 34 34 34 35 35
21 20 19 18 17 17 18 19 20 22 23 23 23 22 23 24 24 24 23 24 24 24 24 24 25 26 26 26 26 26 26 26 27 27 27 27 26 26 26 26 27 27 28 28 28 28 29 29 30 31 31 31 31 31 30 30 30 30 30 30 30 30 30 30 31 31 32 32 32 32 33 33 33 33 34 34 34 34 34 35 35 35 35 35 35 36
20 19 16 15 16 17 19 21 22 23 23 23 23 23 24 24 24 23 23 23 23 23 24 25 26 26 26 26 25 24 24 25 26 26 27 26 26 25 26 26 27 28 28 28 29 29 29 29 30 30 30 29 29 29 29 29 29 29 29 30 30 31 31 31 32 32 33 33 33 33 33 33 33 33 34 34 34 34 34 35 35 35 35 36 36 36
17 16 15 15 16 19 21 22 23 23 24 24 24 24 24 24 23 22 21 21 22 24 25 25 26 26 26 24 22 21 22 23 24 26 27 27 26 26 26 27 28 29 29 29 29 29 29 29 29 29 29 28 28 28 28 29 29 30 30 31 32 32 32 33 33 33 33 33 33 33 34 34 34 34 34 34 34 34 35 35 35 35 35 35 36 36
15 15 15 16 18 20 22 23 23 23 24 24 23 23 22 22 21 21 21 21 23 23 23 23 22 22 23 22 21 19 20 22 24 26 27 28 28 27 26 26 28 29 29 29 28 29 29 28 28 28 28 28 28 28 29 30 31 31 32 32 33 33 33 34 34 34 34 34 34 34 34 34 34 34 34 34 34 35 35 35 35 35 36 36 36 36
16 17 18 18 19 21 23 23 23 23 23 23 22 22 21 21 21 21 21 22 22 22 21 19 13 9 13 20 21 20 21 23 25 27 28 29 29 28 26 26 27 29 29 29 28 28 28 28 28 28 28 28 29 30 31 31 32 33 33 33 33 33 33 34 34 34 34 34 34 34 34 34 34 34 34 34 35 35 35 35 36 36 36 36 36 36
19 19 20 20 20 21 22 23 23 23 22 22 22 22 21 21 21 22 22 22 21 20 19 18 13 7 6 12 20 23 24 25 26 27 28 29 30 29 28 26 27 28 29 28 28 27 27 28 28 28 28 29 30 31 32 33 33 33 33 33 33 33 33 34 34 34 34 35 34 34 34 34 34 34 34 34 35 35 35 35 36 36 36 36 36 36
20 20 20 20 21 22 22 22 22 22 21 21 21 22 21 22 22 22 23 23 22 20 19 16 15 15 14 17 23 27 27 26 26 26 26 28 29 30 28 26 26 27 28 28 27 27 27 28 28 29 30 30 31 32 32 32 32 32 33 33 33 34 34 35 35 35 35 35 35 35 35 34 34 34 34 34 34 35 35 35 35 36 36 36 36 36
22 21 21 21 22 22 22 22 22 22 22 22 22 22 22 23 23 24 24 22 21 20 19 16 16 18 20 24 28 30 29 27 25 25 25 27 28 28 27 25 25 26 27 28 27 27 27 28 29 29 30 30 30 31 31 32 32 33 33 34 34 35 35 35 35 35 35 35 35 35 34 34 34 34 34 34 34 34 34 35 35 35 35 36 36 36
23 22 22 22 22 22 22 22 23 23 23 23 23 23 23 24 24 24 22 20 18 17 17 17 19 22 25 27 29 30 29 26 24 24 24 25 26 27 25 24 24 25 27 28 28 27 27 28 28 29 29 29 30 31 32 33 33 34 34 35 35 35 35 35 34 34 34 34 34 34 34 34 34 34 34 34 34 34 34 34 35 35 35 36 36 36
22 23 23 23 23 23 24 24 25 24 24 24 23 23 24 23 22 20 18 17 17 18 20 21 24 26 28 29 30 30 28 25 23 23 22 20 22 25 25 24 24 25 26 27 27 27 27 27 28 28 29 30 31 32 33 34 34 34 34 34 34 34 34 34 34 34 33 33 33 33 33 33 33 34 34 34 34 34 34 34 34 35 35 36 36 36
23 24 24 24 24 24 24 25 25 25 24 24 24 24 23 22 20 19 18 19 20 22 24 26 27 28 28 28 28 28 26 24 23 22 20 13 16 24 25 25 24 25 26 27 27 27 27 28 28 29 30 31 32 33 33 33 34 34 34 34 33 33 33 33 33 33 33 33 33 33 33 33 34 34 34 34 34 34 34 34 34 34 35 35 36 36
23 23 24 23 24 24 24 25 25 25 25 26 26 25 24 22 22 22 23 24 25 25 26 27 26 26 25 25 26 25 24 23 21 20 19 16 19 24 26 25 24 25 26 27 27 27 28 29 29 30 30 31 32 32 33 33 33 33 33 32 32 32 32 32 32 32 32 33 33 33 34 34 34 34 35 34 34 34 34 34 34 34 34 35 35 36
22 22 23 24 25 26 27 27 28 28 28 28 27 26 25 24 25 26 27 26 25 24 23 22 21 21 21 22 23 23 23 22 21 20 19 18 20 24 25 24 23 24 26 27 27 27 28 29 30 30 30 31 31 31 32 32 32 31 31 31 31 31 31 31 32 32 33 33 33 34 34 34 34 34 34 35 35 35 35 35 35 35 35 35 35 35
23 24 26 27 29 30 31 31 31 30 30 29 27 26 25 25 25 25 24 23 21 20 19 17 16 17 20 21 21 22 23 22 21 20 19 18 20 22 24 23 22 23 25 27 27 27 28 29 30 31 31 31 31 30 30 30 29 29 29 30 30 31 32 32 33 33 33 34 33 34 34 34 34 34 34 34 34 35 35 35 36 36 36 36 36 36
25 27 29 30 30 30 29 28 28 27 27 27 26 25 25 24 23 21 20 20 18 18 17 13 11 13 17 18 19 21 23 23 22 21 20 20 20 20 22 22 22 23 25 27 28 28 28 29 30 30 30 29 29 28 27 27 28 28 29 30 31 32 33 33 33 33 33 33 33 33 33 33 33 33 34 34 34 34 35 35 35 36 37 37 37 36
26 27 27 27 26 25 25 25 25 26 26 26 25 25 24 23 21 19 18 19 18 17 16 12 10 9 10 13 18 22 24 24 23 21 20 19 17 17 20 22 22 23 24 26 28 29 28 27 28 28 28 27 27 26 26 27 28 29 30 31 32 32 32 32 32 32 32 32 32 32 32 32 33 33 33 34 34 34 34 35 35 35 36 36 35 34
24 24 24 23 22 22 23 24 25 25 25 24 23 22 21 20 19 18 18 19 18 17 17 16 15 13 12 16 20 23 25 24 23 21 19 17 16 17 21 22 22 22 23 25 27 28 27 25 25 24 25 26 26 26 27 27 28 29 30 31 31 31 31 30 30 30 30 30 31 31 31 32 32 32 33 33 34 34 34 35 35 34 34 33 33 32
22 21 21 21 21 22 22 23 23 23 22 22 21 20 19 18 18 18 18 18 17 17 17 17 17 17 16 16 15 15 19 22 21 19 17 15 15 17 21 22 22 22 22 20 17 17 20 23 24 23 23 25 26 27 27 27 28 28 29 29 30 29 29 29 29 29 29 30 30 30 31 31 32 32 32 33 33 34 34 34 34 33 32 32 32 31
21 21 21 21 22 22 22 22 21 21 20 20 19 18 17 17 17 17 17 17 17 17 17 18 18 18 17 11 6 5 8 19 22 19 18 16 16 18 20 21 22 23 21 17 9 5 11 16 22 25 24 25 26 27 28 28 27 27 28 28 29 29 29 28 28 29 29 29 29 30 30 31 31 32 32 33 33 33 34 34 33 32 32 32 31 30
22 22 22 22 22 21 21 20 20 19 19 19 18 18 17 17 17 17 17 17 17 17 18 19 19 19 19 14 10 8 10 21 25 23 20 18 18 20 21 20 21 23 22 20 15 10 8 7 17 27 27 27 27 28 28 28 27 27 27 28 28 29 29 28 28 28 28 28 29 29 30 30 31 31 32 32 32 33 33 33 32 32 32 30 29 29
22 22 21 21 21 20 20 19 19 19 19 18 18 18 17 17 17 17 17 17 17 18 18 19 19 19 19 20 19 19 22 26 27 24 22 19 18 19 21 22 22 22 23 23 22 19 13 10 17 26 29 29 28 28 28 27 27 26 27 27 28 28 29 28 27 27 28 28 29 29 30 30 30 30 31 31 31 31 32 32 31 31 30 30 30 29
21 21 20 20 20 20 19 19 19 18 18 18 18 17 17 17 17 17 17 18 18 19 19 20 20 19 20 19 20 23 26 28 26 24 22 20 19 20 22 23 23 22 22 21 22 21 20 21 22 23 25 28 30 29 27 27 27 27 26 27 27 28 28 28 28 28 28 28 28 28 29 28 28 29 29 29 30 30 30 30 30 30 30 32 31 30
20 20 20 19 19 19 19 19 18 18 18 18 17 17 17 18 18 18 18 18 19 19 20 20 21 21 21 20 20 22 26 28 28 25 23 22 21 22 23 23 23 22 21 20 20 19 18 21 23 23 22 25 28 29 28 27 27 27 27 27 27 27 28 28 28 28 28 28 28 28 28 28 27 28 28 28 28 29 30 31 32 32 33 34 34 33
19 19 19 19 18 18 18 18 18 18 18 17 17 18 18 18 19 19 20 20 21 21 22 22 22 23 24 24 24 25 28 30 30 28 26 24 23 23 22 24 24 24 21 21 20 18 16 18 22 24 22 18 19 24 29 29 28 27 27 27 27 27 27 27 27 27 28 28 28 28 28 27 27 28 28 29 29 30 32 33 34 34 34 34 35 35
19 18 18 18 18 18 18 18 18 18 18 18 18 18 19 19 20 20 21 22 23 23 24 24 24 25 25 26 27 29 30 31 31 31 29 28 26 25 24 25 26 26 23 21 20 20 18 15 16 18 19 15 14 18 26 29 30 29 28 28 28 28 28 28 27 27 27 27 27 28 28 28 28 28 29 30 30 31 31 32 32 33 33 33 33 33
18 18 18 18 18 18 18 18 18 18 18 19 19 20 20 21 22 22 23 23 24 24 24 24 25 25 26 27 29 31 32 33 34 34 34 32 30 29 27 26 27 26 24 23 22 22 20 13 10 11 11 15 20 23 26 28 28 29 30 30 30 29 29 28 27 26 26 27 28 28 29 29 29 29 29 29 29 28 28 29 30 30 31 31 32 33
17 18 18 18 18 18 17 18 18 19 19 20 20 21 21 22 23 23 23 23 23 23 23 23 24 25 27 28 30 30 31 32 33 34 34 34 32 30 28 27 27 27 26 25 24 23 22 17 13 10 9 12 18 24 28 27 27 28 30 31 31 30 29 27 27 26 26 27 28 29 29 29 28 28 28 28 27 27 28 28 29 30 31 30 31 33
18 18 18 18 18 18 18 19 19 20 20 21 21 22 22 22 22 23 23 22 22 22 23 23 24 25 26 27 28 28 29 30 31 32 32 33 32 31 29 27 27 26 26 25 24 23 23 21 20 21 20 16 17 21 25 26 27 28 28 26 26 27 29 28 28 28 28 28 28 28 28 28 28 27 27 27 27 28 29 30 31 32 32 31 30 31
18 18 19 19 18 18 19 19 20 21 21 21 22 21 21 21 21 22 22 22 22 22 22 23 23 24 26 27 28 28 28 28 29 29 29 30 31 31 30 28 27 26 26 25 25 24 24 24 23 24 24 23 23 24 25 27 28 28 27 24 24 28 30 30 29 28 27 27 27 27 27 28 28 28 28 28 28 29 30 30 31 32 33 33 31 29
18 18 19 19 19 19 20 20 21 21 21 21 21 20 20 20 20 21 22 23 23 23 23 22 22 24 25 27 28 28 27 27 27 27 27 28 28 29 29 28 28 26 26 25 25 25 26 25 24 24 24 24 23 22 23 27 29 29 27 26 27 29 30 30 28 26 25 26 27 28 28 28 28 28 28 28 29 30 30 31 32 32 33 32 32 31
18 18 19 19 20 20 20 21 21 21 21 20 20 20 20 20 20 21 21 22 23 23 23 23 22 23 24 26 27 28 28 27 27 26 26 26 27 27 27 28 28 28 27 25 24 25 26 26 25 25 25 25 24 22 22 25 28 29 29 28 27 24 20 24 27 28 27 27 27 28 28 28 28 28 28 28 29 30 31 31 31 32 32 32 32 32
18 18 19 19 20 20 20 20 20 21 21 21 21 21 21 21 20 21 21 22 22 23 22 22 22 22 22 24 25 27 28 28 27 27 26 25 25 25 25 26 27 27 27 25 24 24 25 26 26 27 27 26 24 23 23 25 26 27 29 29 27 24 21 23 27 29 29 28 28 28 28 27 28 28 28 28 29 29 29 29 30 31 31 31 32 32
18 18 19 19 20 20 20 20 21 21 21 21 21 21 21 21 20 20 21 21 22 22 22 22 21 20 21 22 23 24 26 27 27 27 26 25 24 24 24 25 25 25 26 26 25 24 24 24 26 27 27 26 25 24 23 24 25 26 28 28 27 27 28 29 29 28 27 28 28 28 28 27 27 27 28 28 29 28 28 28 29 30 30 30 31 31
17 18 19 19 19 20 20 21 21 21 21 21 21 21 21 21 20 20 21 21 21 22 22 22 20 19 19 20 22 23 23 25 26 27 27 26 25 24 24 24 24 25 26 26 26 26 26 26 26 27 27 26 25 26 26 25 24 24 26 27 27 27 27 28 28 28 27 28 28 28 29 28 27 26 26 28 29 30 29 28 28 29 29 30 30 30
18 18 18 19 19 20 20 20 20 21 21 21 21 21 21 21 21 21 21 21 21 21 22 22 20 19 20 21 21 21 21 22 24 26 27 27 26 26 25 24 24 25 25 26 26 27 28 28 28 27 26 23 22 23 26 27 26 25 25 26 26 26 25 26 27 28 27 27 27 27 28 28 28 28 27 28 29 29 30 29 28 29 29 30 30 30
18 19 19 19 20 20 20 20 20 20 20 21 22 22 22 21 21 21 21 22 21 21 21 21 20 20 20 21 21 21 21 22 23 25 26 26 26 26 25 25 25 25 25 26 26 27 27 28 29 28 27 24 21 21 24 26 26 26 26 26 25 24 24 26 27 27 26 26 26 26 27 26 25 25 26 27 27 28 29 29 29 29 29 29 29 29
18 19 19 20 20 20 20 20 20 20 20 21 22 23 23 23 22 22 21 22 21 20 20 20 19 19 20 20 22 23 23 23 24 24 25 25 25 25 25 25 25 26 26 26 26 26 26 27 27 26 25 25 24 23 24 25 26 26 26 25 24 23 23 25 26 27 26 26 26 27 27 26 26 25 25 24 24 25 28 29 30 30 29 29 28 28
19 19 19 19 19 19 20 20 20 20 21 21 22 23 24 24 23 22 22 21 21 20 20 20 19 19 19 20 22 22 23 23 23 24 24 25 25 24 24 25 25 25 25 25 25 25 24 23 22 22 21 21 22 23 23 24 25 25 24 24 24 24 24 25 27 28 27 27 27 27 27 28 27 26 24 22 22 23 25 27 28 29 28 28 28 29
19 19 19 19 19 20 20 20 21 21 21 22 22 23 23 23 23 23 22 21 21 20 20 20 20 20 20 21 22 22 23 23 22 23 24 25 24 24 24 24 24 24 22 20 19 18 15 13 14 17 19 19 18 19 20 22 23 23 23 24 25 25 24 25 26 27 27 27 27 27 27 27 26 25 23 20 18 17 18 22 26 29 30 29 29 29
Wind_Direction
299 301 303 305 305 304 303 303 304 304 303 303 303 303 302 302 301 299 299 299 298 297 297 296 296 296 296 296 296 296 295 295 294 294 293 293 293 293 293 293 294 293 293 293 292 292 292 291 291 291 291 291 291 291 290 290 289 289 288 288 287 286 286 285 285 284 284 284 283 282 282 281 281 281 280 280 280 279 278 278 278 277 277 276 276 275
301 302 303 305 305 304 302 303 303 302 302 302 302 302 301 301 300 299 298 297 297 297 297 297 297 296 296 296 295 295 295 294 294 293 293 294 294 294 294 295 294 294 294 293 293 292 292 292 292 291 291 291 290 290 289 288 288 287 287 286 286 286 285 285 285 284 284 283 283 282 282 281 281 280 280 279 279 278 277 276 276 275 275 274 274 273
304 304 303 305 304 303 302 303 303 302 301 300 300 300 300 299 298 297 297 297 297 296 296 297 297 296 296 295 294 294 294 294 294 294 295 295 295 296 296 296 295 295 294 293 293 292 292 292 291 291 290 290 289 289 288 288 287 287 287 286 286 286 285 285 285 284 284 283 282 282 281 281 280 280 279 278 277 276 276 275 274 273 273 273 272 271
303 303 304 305 303 301 300 301 302 301 300 298 298 298 297 296 296 295 295 296 296 297 296 296 296 295 295 294 294 294 295 295 296 296 297 297 297 297 297 296 296 295 294 293 293 292 292 292 291 291 290 289 289 289 288 288 288 287 287 287 287 286 286 286 285 284 284 283 282 282 281 280 280 279 279 278 277 277 276 275 274 274 274 274 274 273
302 302 302 303 302 301 300 300 300 300 298 297 296 296 296 295 295 294 294 294 295 296 296 296 295 295 294 295 295 296 296 297 298 298 298 298 298 298 297 296 296 295 294 293 293 292 292 292 291 291 290 290 289 289 289 288 288 288 288 287 287 287 286 286 285 285 284 283 283 282 281 281 280 280 280 280 279 279 278 278 278 277 277 277 277 276
299 299 300 300 300 299 300 299 299 298 298 296 295 295 295 294 295 295 294 295 296 296 296 296 296 295 295 295 296 298 299 299 300 299 299 298 298 297 297 296 295 295 294 293 293 292 292 292 291 291 290 290 290 289 289 289 288 288 288 288 288 287 287 287 286 286 285 285 284 283 283 282 282 282 281 281 281 280 280 280 279 278 277 277 276 276
299 298 299 299 298 297 297 297 297 297 297 297 297 296 294 294 294 295 295 296 297 297 297 297 297 297 297 297 298 300 301 301 300 300 299 298 298 297 297 296 295 295 294 293 293 292 292 292 291 291 290 290 290 289 289 289 289 289 289 289 289 289 288 288 288 287 287 286 285 285 284 283 283 282 281 281 281 280 279 279 278 278 277 275 274 274
299 299 298 297 297 297 297 295 295 294 294 296 297 298 297 296 296 296 296 297 298 299 299 299 299 299 299 299 301 301 302 301 300 299 299 298 297 297 297 296 295 294 293 293 292 292 292 292 291 291 291 290 290 290 290 290 290 290 290 290 290 289 289 289 288 288 287 286 286 285 284 284 283 282 282 281 281 280 279 278 277 277 276 275 274 273
295 296 295 294 293 294 296 296 295 294 293 293 295 297 299 300 300 300 300 300 300 301 301 301 301 300 300 301 301 302 301 300 299 298 298 297 297 297 296 296 295 294 293 293 292 292 292 292 292 292 291 291 291 290 290 290 290 290 290 290 290 289 289 288 288 287 287 286 286 285 285 285 284 283 283 282 281 280 279 278 277 276 275 275 274 273
290 291 291 291 290 290 291 293 295 295 293 292 292 294 297 301 303 304 303 303 302 302 302 301 301 301 301 302 302 301 300 299 297 296 296 296 296 296 296 295 295 294 294 293 293 293 293 293 293 292 292 292 291 291 291 290 290 290 290 290 289 289 289 288 288 287 287 287 286 286 286 285 285 284 283 282 281 280 279 278 277 276 275 274 274 273
290 290 290 290 290 289 287 288 292 296 297 297 298 298 299 301 303 305 305 304 303 303 302 301 301 301 302 303 302 301 300 299 298 296 296 296 296 296 296 295 295 294 295 295 295 294 294 294 293 293 293 292 292 291 291 290 290 290 290 290 289 289 289 288 288 288 287 287 287 286 286 285 284 283 282 281 280 279 278 277 276 275 274 273 272 271
291 291 290 290 290 290 291 293 297 301 303 304 304 303 302 302 302 302 302 302 303 303 303 302 301 301 301 301 301 300 299 298 297 297 297 297 298 298 298 298 297 297 296 296 296 295 295 294 294 293 293 292 292 291 291 290 290 290 290 290 290 289 289 289 288 288 287 287 286 286 285 285 284 283 282 281 280 279 278 276 275 274 273 272 271 270
289 289 288 287 288 292 298 302 305 306 306 305 304 303 303 304 303 301 299 299 301 302 303 303 302 300 299 299 298 298 297 296 296 297 297 298 299 300 300 300 299 298 298 298 297 296 295 295 294 293 292 292 291 291 290 290 290 290 290 290 290 290 289 289 288 288 287 287 286 286 285 285 284 283 282 281 281 280 279 278 277 276 274 273 272 271
287 287 287 288 293 299 303 306 306 305 304 303 302 301 301 302 303 302 300 300 301 302 303 302 300 299 298 298 297 296 296 296 297 297 298 298 299 300 301 300 299 298 298 297 296 295 295 295 294 293 292 291 291 290 291 291 291 291 291 291 291 290 290 289 288 288 288 287 287 286 285 285 284 283 282 281 280 280 279 278 277 276 275 275 274 273
286 289 293 296 300 303 304 304 303 301 301 300 300 300 301 302 302 302 302 302 302 303 302 300 298 297 297 296 296 296 297 298 298 299 299 298 299 300 301 300 299 298 297 296 295 294 295 294 293 292 292 291 291 291 291 292 292 292 292 292 291 291 290 289 289 288 288 287 287 286 286 285 284 283 282 281 280 279 278 277 276 275 275 274 273 273
292 297 300 301 302 301 301 301 300 299 299 300 301 301 302 302 303 303 302 301 301 301 300 299 298 297 296 296 297 299 301 302 301 300 300 299 299 300 301 300 298 297 296 295 294 294 295 294 292 291 291 291 291 292 292 292 292 292 292 292 292 291 290 290 289 289 288 288 287 287 286 285 285 284 283 282 280 279 278 277 276 275 274 273 272 272
298 301 300 299 299 299 299 299 298 298 299 300 301 301 301 301 301 301 299 298 298 297 296 296 294 295 298 300 301 303 306 305 303 301 300 298 299 299 300 299 297 295 295 294 294 294 294 293 293 292 291 291 292 293 293 293 293 293 292 292 291 291 290 290 289 289 289 288 288 287 287 286 285 284 283 282 281 280 279 278 276 275 274 273 272 271
299 299 298 297 296 297 298 298 298 298 299 299 300 300 300 299 298 297 295 294 293 293 292 291 290 289 297 301 303 304 307 306 304 301 299 297 298 298 299 297 295 293 293 293 293 294 294 293 292 292 292 292 292 293 293 293 293 293 292 292 292 292 291 291 291 290 290 289 289 288 287 286 285 284 283 282 281 280 278 277 276 275 274 273 272 271
296 295 295 295 295 295 296 296 296 297 298 299 300 300 299 297 295 294 293 292 290 288 287 287 290 293 297 299 301 303 305 304 302 299 297 296 296 297 299 297 294 293 293 293 293 294 294 293 292 292 292 292 293 293 293 293 293 293 293 293 293 292 292 292 291 291 290 289 288 288 287 286 285 284 283 282 281 280 279 277 276 275 274 273 272 271
292 292 292 292 293 294 293 293 293 294 296 297 298 297 295 294 293 292 290 288 286 286 287 289 294 297 299 299 299 300 302 302 300 297 294 293 294 295 297 297 295 293 293 293 294 295 295 294 293 293 293 293 293 293 294 294 294 294 294 293 293 292 292 292 291 291 290 289 289 288 288 287 286 286 285 284 282 281 279 278 277 275 274 273 272 271
290 289 289 290 291 292 291 291 292 293 294 295 294 293 291 291 290 288 287 287 288 292 296 297 298 298 299 298 297 297 299 298 296 293 292 292 293 294 296 297 296 294 294 294 295 295 295 294 294 294 294 294 294 295 295 295 294 294 294 293 293 292 292 291 291 291 290 290 289 289 288 288 287 287 286 285 284 282 281 279 278 276 275 274 272 271
289 290 290 290 289 289 289 291 291 291 291 291 289 288 286 286 286 286 290 295 300 302 302 299 298 297 296 295 293 293 295 293 291 289 290 291 291 293 296 297 297 294 293 294 296 297 296 296 295 295 295 295 295 295 295 295 294 294 293 293 293 292 292 291 291 290 290 290 290 289 289 288 288 288 287 286 285 284 282 281 280 278 277 275 274 272
289 289 290 290 289 288 288 288 289 288 287 285 282 281 281 282 286 293 301 305 305 303 300 298 296 295 293 291 290 291 291 290 288 288 288 287 289 293 297 298 297 295 293 295 297 299 298 297 296 296 296 295 295 295 295 294 294 293 293 293 292 292 291 291 291 290 290 290 290 289 289 289 289 289 288 288 287 286 284 283 281 280 279 277 276 274
288 288 288 288 287 286 285 285 285 284 284 283 283 283 286 291 296 301 303 303 301 299 297 296 295 293 291 290 290 291 291 291 291 290 289 287 289 292 296 298 297 295 294 296 298 300 300 298 297 297 296 295 295 295 294 294 293 293 293 293 292 292 291 291 291 291 290 290 290 290 289 288 288 288 288 287 287 287 286 285 283 282 280 279 277 276
288 287 287 287 286 285 285 284 285 286 288 291 294 298 302 303 303 302 300 298 297 295 295 294 293 292 292 293 293 293 293 294 294 292 290 288 289 291 294 296 295 294 295 297 299 301 300 299 298 297 297 296 295 295 294 293 293 293 293 293 292 292 292 292 292 291 291 291 290 289 288 288 287 286 286 285 285 285 285 285 285 284 282 281 279 277
289 288 288 286 286 287 287 288 290 292 295 298 301 303 305 304 303 300 298 296 295 295 295 294 292 292 293 294 294 293 294 295 294 292 289 288 289 290 293 295 295 294 296 298 300 301 300 299 299 298 297 296 295 294 294 293 293 293 294 294 294 293 293 293 292 292 291 290 289 288 288 287 286 285 285 284 283 283 283 283 283 283 283 282 281 280
291 290 288 288 288 290 292 294 296 297 298 299 299 300 300 301 300 298 295 294 295 296 296 295 293 293 294 294 292 293 295 296 295 292 290 288 288 289 291 295 296 297 298 300 301 301 300 298 298 297 297 296 295 295 294 294 295 295 295 295 295 294 293 292 292 291 291 290 289 288 287 287 286 285 285 284 284 283 283 282 282 282 283 283 283 282
291 290 290 291 293 295 298 299 299 299 298 297 297 297 297 297 296 293 291 293 296 296 293 291 290 291 292 292 293 294 295 294 293 292 292 290 287 287 292 296 299 300 301 301 301 300 299 296 296 296 296 296 296 296 296 297 297 297 296 295 295 294 293 292 292 291 291 290 289 289 288 287 286 285 285 284 284 284 284 284 284 284 284 284 283 282
292 293 295 297 299 301 301 300 299 298 297 297 297 297 295 293 290 288 289 292 293 293 290 289 288 288 289 291 293 294 293 292 291 293 296 294 290 289 294 298 301 302 303 303 303 302 299 297 296 296 296 297 298 299 299 299 298 298 297 296 295 294 294 293 293 292 292 291 290 290 289 288 287 287 286 286 285 285 285 285 285 285 285 284 283 281
300 303 304 304 304 303 302 300 299 298 297 297 296 295 294 290 286 284 286 288 288 287 286 287 288 288 290 292 294 293 291 290 292 297 302 300 295 293 297 299 300 301 304 306 306 304 301 300 300 299 299 299 300 299 299 299 299 298 298 297 296 295 295 294 294 294 293 293 292 291 291 290 289 288 288 287 286 285 285 285 285 285 284 283 281 279
307 308 307 306 304 303 302 300 298 298 297 297 297 295 293 289 285 283 283 283 282 282 283 285 287 288 289 291 292 289 289 291 294 300 305 301 295 293 296 298 298 300 302 303 303 303 303 304 304 303 302 301 301 300 299 299 299 298 298 298 297 296 295 295 296 295 295 295 294 293 292 291 291 290 289 288 287 286 285 285 285 285 284 282 280 278
308 307 305 304 303 302 301 300 299 298 298 298 297 296 293 290 287 285 283 282 280 279 281 283 285 286 286 285 282 280 282 289 293 298 301 297 293 292 294 295 296 298 299 297 294 292 298 303 305 304 304 303 301 300 300 299 298 298 298 297 296 295 296 297 297 297 297 296 296 295 294 293 291 290 289 288 287 286 285 285 285 284 282 281 279 276
305 304 303 302 302 301 300 300 299 298 298 298 298 297 295 293 290 287 285 283 280 279 278 280 283 284 284 283 281 280 282 285 290 294 297 295 293 292 294 295 295 296 297 295 292 289 288 289 298 301 303 302 301 300 300 299 298 297 297 296 296 295 296 298 298 298 298 297 297 296 295 293 292 290 289 288 287 286 286 285 285 283 281 280 278 276
303 302 302 302 301 300 300 299 299 299 298 299 299 298 297 296 293 290 287 284 282 280 278 278 279 280 282 283 283 282 283 285 288 292 295 294 292 292 293 294 294 295 296 295 293 291 288 289 293 297 300 301 301 300 299 299 298 297 296 295 295 295 296 297 298 298 297 297 296 295 295 293 292 290 289 288 287 287 286 286 285 284 282 281 280 279
302 302 302 302 302 301 301 301 300 300 300 300 300 300 299 297 295 292 290 287 284 282 279 276 275 275 277 278 280 282 283 285 288 291 293 291 289 289 290 291 292 293 293 292 292 292 291 290 292 294 297 299 300 300 299 299 299 298 297 295 294 294 294 295 296 296 296 296 295 294 293 292 291 290 289 288 287 286 287 288 287 286 285 283 282 281
302 302 302 302 302 302 302 303 303 302 302 302 301 301 299 298 296 293 291 289 287 285 282 278 275 273 273 272 273 275 278 283 287 289 289 286 285 285 286 288 289 290 290 289 289 289 289 290 291 293 294 296 298 299 300 301 301 300 298 297 295 294 294 294 294 294 294 294 293 293 292 292 291 290 289 288 288 287 288 288 288 287 286 285 284 282
302 302 303 303 303 303 303 303 303 303 303 303 302 301 300 298 296 294 293 290 288 286 284 281 278 275 272 271 270 272 274 279 282 284 284 283 282 281 282 284 286 287 286 285 286 287 287 288 290 291 292 291 292 296 299 302 302 301 299 298 297 296 295 294 294 293 292 291 291 291 291 291 290 290 289 289 289 289 288 288 288 288 287 287 286 284
302 303 303 304 304 304 304 303 303 304 303 303 302 301 300 298 297 295 293 291 289 287 286 284 281 280 278 275 274 274 276 277 279 281 282 282 281 279 279 281 282 282 281 280 281 283 285 285 288 288 287 289 290 292 295 298 300 299 298 298 297 296 295 295 294 293 292 291 291 291 291 290 290 289 289 288 289 289 288 288 288 288 289 289 288 287
303 303 304 304 305 304 304 304 303 303 303 302 301 300 298 297 297 296 294 292 290 289 287 286 284 283 283 281 280 279 279 279 280 282 283 282 281 279 277 278 279 280 279 278 278 279 280 280 281 282 285 289 291 292 293 294 295 296 297 299 298 297 295 296 295 294 293 292 291 291 290 290 289 288 288 289 289 289 289 289 289 290 291 290 290 290
305 304 304 305 305 305 304 303 303 303 303 302 300 299 298 297 297 297 295 294 293 292 291 290 288 287 286 285 284 283 283 283 283 284 284 283 282 279 276 275 276 277 278 278 276 276 276 277 278 280 282 285 288 290 292 292 292 294 296 298 298 297 297 297 296 295 293 291 289 289 289 290 290 289 288 288 288 289 289 289 290 291 290 290 289 289
305 304 305 305 306 305 304 304 303 303 302 302 300 299 298 297 298 298 298 298 297 296 295 295 293 292 291 290 289 287 287 286 286 285 285 284 284 282 278 275 274 274 276 276 276 275 275 275 277 279 281 282 284 286 288 289 291 293 294 294 294 295 296 296 295 293 292 290 289 289 289 290 291 290 290 289 288 287 287 287 287 287 288 287 286 285
304 304 305 306 306 306 305 304 303 303 302 301 299 297 297 297 297 298 298 299 299 299 298 298 297 296 296 295 294 293 292 291 289 288 288 287 286 284 281 278 275 274 274 275 275 275 275 275 275 277 279 280 282 285 287 289 290 292 292 292 293 295 296 296 294 293 292 291 290 291 290 291 291 290 289 289 289 288 287 287 286 285 285 285 284 282
303 304 304 305 305 305 305 305 304 304 303 301 299 297 297 297 297 297 297 297 297 298 298 298 297 296 295 295 296 297 297 296 295 293 292 291 289 287 284 281 279 277 275 274 274 276 276 276 276 276 278 279 281 283 285 288 290 291 291 291 292 294 295 295 295 295 293 291 290 290 290 290 290 290 290 290 290 290 289 288 286 285 284 283 282 281
302 302 303 304 305 306 306 306 305 304 303 301 299 298 298 298 297 296 296 295 295 295 296 296 296 295 293 292 295 297 298 299 299 298 296 295 293 291 289 287 284 281 278 274 274 276 278 279 279 279 280 281 281 281 282 286 288 289 290 290 289 288 286 289 292 294 293 291 290 289 289 290 291 292 292 292 291 291 290 290 288 287 286 285 283 282
300 302 303 305 306 306 306 305 305 303 302 300 298 298 299 299 298 298 297 295 295 295 294 295 295 294 293 293 294 296 298 300 301 301 301 300 298 297 294 291 288 285 282 278 275 274 275 277 280 282 283 282 280 279 280 283 285 287 288 288 288 286 284 285 287 289 290 290 290 290 291 292 293 294 294 294 294 293 292 291 290 289 288 287 285 284
302 303 304 305 306 305 304 304 304 303 302 300 299 299 300 301 300 299 297 296 295 294 294 295 294 292 291 293 295 297 298 300 301 302 303 303 302 300 298 295 291 288 285 282 278 275 273 274 277 280 283 283 282 281 280 281 283 285 286 288 288 287 286 286 287 287 288 289 289 291 293 295 296 296 295 295 296 295 294 292 290 289 289 289 288 286
305 305 305 305 305 304 303 303 303 303 302 301 301 301 302 303 302 301 299 297 295 295 295 295 293 290 289 291 293 295 296 298 299 301 302 303 303 303 301 299 295 292 288 285 282 279 276 274 274 275 278 280 281 282 282 282 283 284 285 287 288 288 287 287 288 288 288 289 289 292 295 298 298 298 296 296 296 296 296 294 293 292 291 291 290 289
306 306 305 304 304 304 303 303 303 303 303 302 302 303 304 304 303 302 300 299 297 296 295 295 293 291 290 291 292 293 295 296 297 299 300 302 303 303 303 301 299 296 293 289 286 283 280 277 275 273 272 273 275 279 281 282 283 283 284 286 287 287 287 287 289 291 292 291 292 293 296 297 297 297 297 297 297 297 297 297 297 296 295 293 292 291
305 305 304 304 303 303 303 304 304 304 303 303 304 304 304 304 303 301 299 299 297 295 294 293 292 292 292 292 293 294 295 296 296 297 299 300 302 303 303 302 301 300 298 296 293 290 287 284 280 276 272 269 269 273 277 280 281 283 284 286 287 288 289 291 293 295 296 296 296 296 296 296 294 293 293 294 295 296 297 298 299 299 298 297 296 294
305 304 304 304 303 302 302 303 304 303 303 303 303 303 303 304 303 302 300 298 297 295 293 292 292 292 292 293 294 295 296 297 297 298 299 301 303 303 303 303 302 302 301 301 300 298 296 293 290 287 282 274 271 271 275 280 283 286 288 289 290 292 293 294 296 297 298 298 298 298 297 295 294 292 290 289 291 294 297 299 300 301 301 301 300 299
306 305 304 304 302 302 301 301 302 302 301 301 301 301 301 302 302 302 301 299 298 296 294 293 292 291 292 292 293 294 296 297 297 298 299 302 303 303 302 301 301 301 301 302 303 303 302 300 299 298 296 291 284 279 279 284 288 291 292 292 293 295 295 295 296 297 298 298 298 297 296 294 293 292 289 288 290 294 297 300 302 303 303 303 302 301
Height
761 760 759 759 758 757 755 755 754 752 750 749 748 747 746 744 743 742 741 740 738 737 736 734 733 731 730 729 727 726 725 723 722 721 719 718 717 715 714 713 712 711 710 708 707 706 705 704 703 702 701 700 699 698 697 696 695 694 693 692 692 691 690 689 688 687 687 686 685 685 684 683 683 682 682 681 681 680 680 680 679 679 678 678 677 677
760 759 759 758 757 756 754 753 753 752 750 748 747 746 745 743 742 740 739 738 737 736 734 732 731 730 728 727 725 724 722 721 720 718 717 716 714 713 712 711 710 708 707 706 705 704 703 702 701 700 698 697 697 695 694 693 692 692 691 690 689 688 687 686 686 685 684 683 682 682 681 681 680 679 679 678 678 677 677 677 677 676 676 675 675 675
760 758 757 757 757 755 753 752 751 751 750 747 746 745 743 742 740 739 737 736 735 734 733 731 730 728 726 725 723 722 720 719 718 716 715 713 712 711 710 709 707 706 705 704 702 702 700 699 698 697 696 695 694 693 692 691 690 689 688 687 686 685 684 683 683 682 681 681 680 679 678 678 677 677 676 676 675 675 674 674 673 673 672 672 672 672
760 758 757 756 756 754 753 752 750 749 748 747 745 743 742 741 739 737 736 735 733 732 731 730 728 726 724 722 721 720 718 717 716 714 713 712 710 709 708 707 705 704 703 702 700 699 698 697 696 695 693 692 691 690 689 688 687 686 685 684 683 682 682 681 680 679 678 677 677 676 676 675 674 674 673 672 672 671 671 670 670 669 669 669 668 668
759 758 757 756 754 752 752 751 749 748 746 745 743 742 740 738 737 736 734 733 732 731 729 727 726 724 722 721 719 717 716 715 714 712 711 710 708 707 706 705 703 702 700 699 698 697 696 694 693 692 691 690 688 687 687 685 684 683 682 682 681 680 679 678 677 676 675 675 674 673 673 672 672 671 670 669 669 668 668 667 667 666 666 666 666 665
758 758 756 755 753 752 750 749 748 746 744 742 741 740 738 737 735 734 733 732 730 729 727 726 724 722 721 719 717 716 715 713 712 711 709 708 707 705 704 702 701 700 698 697 695 694 693 692 691 689 688 687 686 685 684 683 682 681 680 679 678 677 676 675 674 673 672 672 671 670 670 669 669 668 667 667 666 666 665 665 664 664 663 663 663 663
757 757 756 754 752 751 749 748 746 745 743 741 739 738 737 736 734 733 731 730 728 727 725 724 722 721 719 717 716 715 713 712 710 709 707 706 705 703 702 700 699 697 696 694 693 692 691 689 688 687 686 685 683 682 681 680 679 678 677 676 675 674 673 672 672 671 670 669 668 668 667 667 666 665 665 664 663 663 662 662 662 661 661 661 660 660
755 754 754 753 751 749 747 746 745 744 742 739 738 736 735 734 732 731 730 728 727 725 723 722 720 719 717 716 715 713 712 710 709 707 705 704 702 701 700 698 697 695 693 692 691 689 688 687 686 684 683 682 681 680 678 677 677 675 674 673 672 672 671 670 669 668 667 667 666 665 664 664 663 662 662 661 661 660 660 659 659 658 658 657 657 657
755 753 752 751 750 748 745 743 742 742 741 739 737 736 734 732 730 728 728 727 725 724 722 720 718 717 716 715 714 712 711 709 707 706 704 702 700 699 697 696 694 692 691 690 688 687 686 685 683 682 681 679 678 677 676 675 674 673 672 671 670 669 668 667 667 666 665 664 663 662 662 661 660 660 659 659 658 657 657 657 656 656 655 655 654 654
754 752 750 748 748 747 744 741 740 740 740 738 737 736 734 731 728 726 724 724 723 722 721 719 717 716 714 713 712 711 709 707 706 704 702 701 699 697 695 694 692 690 688 687 686 685 683 682 681 680 678 677 676 675 674 673 672 671 670 669 668 667 666 665 664 663 662 662 661 660 659 658 658 657 657 656 655 655 654 654 653 653 652 652 652 651
752 751 749 747 745 744 743 741 740 739 738 737 735 734 733 731 728 725 722 721 721 721 720 718 717 715 713 712 711 710 708 706 703 701 700 698 697 695 693 692 690 688 687 685 684 682 681 680 679 677 676 675 674 672 671 670 669 668 667 666 665 664 663 662 662 661 660 659 658 657 657 656 655 655 654 653 653 652 652 651 650 650 649 649 648 648
751 749 747 746 744 742 742 740 739 738 737 735 733 731 730 730 729 727 723 721 719 718 718 717 716 715 713 711 709 708 706 704 701 699 697 696 695 693 692 690 688 686 685 683 682 680 679 678 677 675 674 672 671 670 669 668 667 666 665 664 663 662 661 660 659 658 657 657 656 655 654 653 652 652 651 651 650 649 648 648 647 647 646 646 645 645
750 748 746 744 743 742 740 739 737 736 735 734 732 730 728 727 727 726 723 721 719 718 717 715 714 713 712 711 709 707 705 702 700 697 696 694 693 692 690 688 686 684 683 681 679 678 677 676 674 673 671 670 669 667 667 666 664 663 662 662 660 659 658 657 657 656 655 654 653 652 651 650 650 649 648 647 647 646 645 645 644 643 643 642 642 641
747 746 744 743 742 741 739 738 737 735 734 733 732 730 728 727 726 724 722 720 719 717 717 715 712 711 710 709 707 706 703 701 698 696 694 692 692 691 689 687 685 683 682 680 677 676 675 674 672 670 669 667 666 665 664 663 662 661 660 659 658 657 656 655 654 653 652 651 650 649 648 647 647 646 645 644 644 643 642 642 641 641 640 639 639 638
746 745 743 742 740 740 739 738 736 734 733 732 731 729 727 726 725 723 722 720 718 717 716 713 711 709 707 707 706 704 702 700 697 694 692 690 690 689 688 686 683 681 680 678 676 674 673 672 670 668 666 665 664 663 662 661 660 659 658 657 655 654 653 652 651 650 649 648 647 646 645 645 644 643 642 641 641 640 639 638 638 637 637 636 636 635
745 744 742 741 740 739 738 737 736 733 732 731 729 728 727 725 724 723 722 720 718 716 714 712 709 706 704 704 704 703 702 699 697 694 691 688 687 687 687 685 682 679 677 676 674 672 671 669 668 666 664 663 662 661 660 659 658 657 655 654 653 652 651 649 648 647 646 645 644 643 642 641 640 639 639 638 637 636 636 635 634 634 633 633 632 632
744 743 742 740 739 738 737 736 735 733 731 730 728 727 726 725 723 722 721 719 717 715 713 711 708 705 702 700 701 702 701 699 696 693 691 687 686 686 686 684 681 678 675 674 672 671 669 667 666 664 662 661 660 659 658 657 655 654 653 652 650 649 648 647 645 644 643 642 641 640 639 638 637 637 636 635 634 633 632 632 631 630 630 629 628 628
743 743 741 740 738 737 736 734 733 732 731 729 728 727 726 724 723 722 720 718 716 714 712 710 707 705 702 699 698 699 700 699 696 692 690 687 684 683 683 682 680 677 674 672 670 669 667 665 663 662 661 659 658 657 655 654 653 651 650 649 647 646 645 644 642 641 640 639 638 637 636 635 634 633 632 632 631 630 629 628 627 627 626 625 625 624
742 742 741 739 737 736 735 734 732 731 730 728 727 726 724 723 722 721 719 717 715 713 711 708 706 704 702 700 697 697 698 698 695 692 689 685 682 681 681 680 677 675 672 670 668 667 665 663 662 660 658 657 656 654 653 652 650 649 647 646 645 644 642 641 640 638 637 636 635 634 633 632 631 630 629 628 627 626 625 625 624 623 622 622 621 621
741 740 740 738 736 734 733 732 731 730 729 728 727 725 723 722 720 718 717 715 713 711 709 707 705 703 702 700 697 696 697 697 695 692 688 684 681 679 679 678 676 672 670 667 666 665 663 661 659 657 656 655 653 652 651 649 648 646 645 644 642 641 640 638 637 636 634 633 632 631 630 629 627 627 626 625 624 623 622 621 620 619 619 618 617 617
740 738 738 737 736 734 732 730 730 729 728 727 726 724 722 720 718 716 714 712 711 709 708 707 705 703 702 699 697 695 695 695 693 690 686 682 679 677 677 676 674 671 668 665 664 663 662 659 657 656 654 652 651 650 648 647 646 644 642 641 640 638 637 636 634 633 632 630 629 628 627 626 625 623 622 622 620 619 618 617 617 616 615 614 613 613
738 737 736 736 735 733 731 729 728 728 727 726 725 723 721 718 716 714 712 711 710 709 707 706 704 702 701 699 696 694 694 693 692 689 686 681 677 675 675 674 672 669 666 664 662 661 659 657 656 653 652 650 649 647 646 644 643 642 640 638 637 636 634 633 632 630 629 627 626 625 624 623 622 621 619 618 617 616 615 614 613 612 611 611 610 609
738 736 735 734 733 732 730 729 727 726 725 724 723 721 718 717 715 713 712 711 709 708 706 704 702 701 699 697 695 693 692 691 690 688 685 681 676 673 673 672 671 668 665 662 661 659 657 655 653 652 650 648 647 645 643 642 641 639 637 636 634 633 632 630 629 627 626 625 623 622 621 620 619 617 616 615 614 613 612 611 610 609 608 607 606 606
737 735 734 732 732 730 729 727 726 724 723 722 720 718 717 715 714 712 711 710 709 707 705 703 701 699 697 695 693 691 690 689 688 687 684 680 676 673 672 671 669 666 662 661 659 658 656 653 651 649 648 646 644 642 641 639 638 636 635 633 632 630 629 627 626 625 623 622 621 620 618 617 616 614 613 612 611 610 608 607 606 605 604 603 602 602
735 734 732 731 730 728 727 726 724 722 721 720 718 717 716 714 713 712 711 709 708 706 704 702 700 697 695 693 691 689 687 687 687 686 683 680 675 672 671 670 668 665 661 659 658 657 654 651 649 647 645 643 642 640 638 637 635 634 632 631 629 628 627 625 624 622 621 620 618 617 616 614 613 612 610 609 608 607 605 604 603 602 601 600 599 598
734 732 731 729 728 727 725 724 722 721 720 719 717 716 715 713 712 711 709 708 707 705 703 701 699 696 694 692 690 688 686 685 685 684 682 679 675 671 669 668 667 664 660 657 656 655 653 650 647 644 643 641 639 637 636 634 633 632 630 628 627 625 624 622 621 620 618 617 615 614 612 611 610 609 607 606 605 604 602 601 600 598 597 596 595 594
732 730 729 727 726 724 723 722 721 720 719 718 717 716 715 713 711 709 708 707 706 704 703 701 698 695 693 692 689 687 685 683 683 682 681 678 675 671 668 667 666 663 660 656 654 653 652 648 645 642 640 638 636 635 633 632 631 629 628 626 624 623 621 620 618 617 615 614 612 611 610 608 607 606 604 603 602 601 599 598 597 595 594 593 592 590
730 728 727 725 724 722 722 720 719 718 717 716 715 715 714 712 711 708 707 706 705 704 702 700 698 695 693 690 688 686 683 682 681 680 679 677 674 670 667 666 665 662 659 655 652 650 649 647 644 641 638 636 634 632 631 630 628 627 625 623 622 620 618 617 616 614 612 611 610 608 607 606 604 603 602 600 599 598 597 595 594 592 591 590 588 587
727 726 724 723 722 721 720 719 717 717 715 714 714 713 712 711 710 708 706 705 704 703 701 699 697 695 692 690 687 684 682 680 679 678 678 676 673 669 667 666 664 662 659 655 650 647 645 644 642 640 637 635 633 631 629 628 626 624 622 621 619 617 616 614 613 611 610 608 607 606 604 603 601 600 599 597 596 595 593 592 591 590 588 587 585 583
725 724 723 722 721 720 719 717 716 715 714 713 712 711 710 709 708 707 705 705 704 702 700 698 696 694 692 690 687 683 680 677 677 677 677 675 672 669 667 665 663 662 660 656 651 644 640 639 639 638 636 634 631 629 627 626 624 622 620 618 616 614 613 612 610 609 607 606 604 603 601 600 598 597 596 594 593 592 590 589 588 587 585 583 582 580
723 722 721 720 719 718 717 716 714 713 712 711 710 709 709 708 707 706 705 703 702 701 699 697 695 693 692 690 687 683 678 674 674 676 676 674 671 668 666 664 662 660 660 658 654 647 639 634 633 634 635 633 630 628 626 624 622 620 618 616 613 612 610 609 608 606 605 603 602 600 599 597 596 594 593 592 590 589 587 586 585 584 582 581 578 577
722 722 720 719 718 717 716 714 713 712 711 709 709 708 707 706 705 704 703 702 701 700 698 696 694 692 691 689 687 683 678 674 673 675 675 674 670 667 666 664 661 659 658 658 656 652 645 636 631 630 631 631 628 626 624 622 621 619 617 614 612 609 607 607 606 604 602 600 599 597 596 594 593 591 590 588 587 586 584 583 582 582 580 578 576 573
722 721 719 718 717 716 714 713 712 711 709 708 707 706 705 704 704 703 702 701 700 698 697 695 693 691 689 687 685 682 677 674 673 673 674 672 670 667 664 663 661 658 656 655 654 652 648 641 635 630 628 627 626 624 622 621 619 617 615 613 610 607 606 604 603 602 600 598 596 594 593 591 590 588 587 585 584 582 581 580 579 578 577 575 572 570
721 720 718 717 716 714 713 712 711 709 708 707 706 705 704 703 702 701 700 699 698 697 696 694 692 690 688 686 683 679 676 673 672 672 673 672 669 666 663 662 660 657 655 653 651 649 646 642 637 633 628 624 622 622 621 619 617 615 614 612 609 607 604 603 601 600 597 596 594 592 590 588 587 585 584 582 581 579 578 577 576 575 574 572 570 567
720 718 717 716 714 713 712 711 709 708 707 706 705 704 703 702 701 699 698 697 696 695 693 692 691 689 687 685 682 678 674 670 670 671 671 670 668 665 662 660 658 656 654 651 649 647 644 640 637 634 630 624 620 618 618 617 615 613 612 610 608 606 603 602 600 598 596 594 592 590 588 586 584 582 581 579 578 576 575 574 572 571 570 569 567 565
719 717 716 715 713 712 711 709 708 707 706 705 704 702 702 700 699 698 697 695 694 693 691 690 688 687 685 683 681 677 672 669 668 668 669 668 666 664 662 659 657 655 653 650 647 645 642 639 636 633 631 626 621 616 614 613 613 612 609 607 606 604 602 600 598 597 594 592 590 587 586 584 582 580 578 577 575 574 572 571 569 567 566 565 563 562
718 717 715 714 713 711 710 708 707 706 705 703 702 701 700 699 697 696 694 693 692 690 689 687 686 684 682 680 678 675 672 668 667 666 666 665 664 663 660 657 655 654 652 649 647 644 642 638 634 631 629 626 622 617 613 611 610 609 607 605 603 602 599 598 597 595 593 590 588 586 583 582 580 578 576 574 572 571 569 567 565 564 562 561 559 558
717 716 714 713 712 711 709 707 706 705 704 702 701 700 698 697 696 694 692 691 689 688 686 684 682 681 679 677 675 672 670 667 665 664 663 663 662 661 658 656 653 651 650 648 646 643 641 637 634 630 627 623 620 617 614 611 609 606 604 602 601 600 597 596 594 593 591 588 586 583 582 580 577 575 573 571 569 567 566 563 561 560 558 557 555 553
717 715 713 712 711 710 708 707 705 704 703 702 700 698 697 696 694 692 691 689 687 686 684 682 680 678 676 674 672 670 668 666 664 662 661 660 659 658 657 654 651 649 647 646 644 642 640 637 633 630 626 622 618 615 613 611 609 606 602 600 598 596 595 594 592 591 589 587 584 581 579 577 575 573 571 569 567 566 563 561 558 557 555 553 551 548
716 714 713 711 710 709 707 706 705 703 702 700 698 697 696 694 692 690 689 687 685 684 682 680 678 676 674 672 670 668 666 664 662 660 659 657 657 655 654 652 649 647 645 643 642 640 638 635 632 628 626 622 618 614 611 609 607 605 602 599 596 592 592 591 590 588 587 584 582 580 577 574 572 571 569 567 565 563 561 559 556 554 552 551 548 545
715 713 712 711 709 708 707 705 704 702 701 699 697 696 694 692 691 689 687 685 683 682 680 678 676 674 672 669 667 665 663 662 660 658 657 655 654 652 651 649 647 645 643 641 639 637 635 633 630 627 624 621 617 614 610 607 605 604 602 599 595 592 590 589 588 586 584 582 580 577 575 573 571 568 567 564 562 561 559 557 554 551 549 547 546 543
715 713 711 710 708 707 705 704 702 701 699 698 696 694 693 691 690 688 686 683 682 680 678 677 675 672 669 666 663 662 660 659 657 656 654 653 652 650 648 647 645 643 641 639 636 634 632 630 627 625 622 619 616 612 608 605 603 602 601 598 595 591 588 586 585 584 582 580 577 575 573 571 568 566 564 562 559 557 555 554 552 549 547 544 542 540
714 712 711 709 707 706 704 703 701 700 698 696 695 693 692 690 689 687 685 683 681 678 677 675 673 671 668 664 661 659 657 656 655 654 652 651 649 648 646 644 642 641 639 637 634 631 629 627 625 622 619 617 615 611 607 603 601 599 598 597 595 592 587 583 581 581 580 578 575 573 571 569 567 564 561 559 557 554 552 550 548 546 544 541 539 536
713 712 710 708 707 705 703 702 700 698 697 695 693 692 690 689 687 686 684 682 680 677 676 674 672 670 667 664 660 657 655 653 652 651 650 648 647 646 644 642 640 638 637 635 632 629 626 624 622 619 617 616 613 610 606 602 600 597 595 594 593 591 587 583 580 578 577 575 572 571 569 567 564 562 559 557 554 552 549 547 545 542 540 538 536 533
712 711 709 707 706 704 702 701 699 697 696 694 692 690 688 687 686 685 683 681 678 676 674 673 671 668 665 662 659 657 654 652 649 648 647 645 644 643 642 640 638 636 634 632 630 628 625 622 619 616 615 613 611 608 604 601 598 595 593 591 590 588 585 582 579 577 575 572 570 568 566 565 562 560 557 554 551 549 547 545 542 539 537 534 532 530
712 710 708 707 705 703 702 700 698 696 694 692 691 689 687 686 685 683 682 680 677 675 673 672 670 667 664 661 658 656 653 650 648 646 644 643 642 641 639 638 636 634 632 630 627 625 623 620 617 614 612 610 607 605 602 600 597 594 591 589 587 585 582 579 577 576 573 571 568 565 564 562 561 558 555 552 548 546 544 542 539 537 534 531 529 527
711 709 707 706 704 702 701 699 697 696 693 691 689 688 687 685 684 682 680 678 677 674 672 670 668 666 663 660 658 655 653 650 647 644 642 640 639 638 637 635 633 632 629 627 625 622 620 617 615 613 611 608 605 601 599 597 595 593 589 587 585 582 580 577 574 573 571 569 566 564 562 561 559 556 553 550 546 543 540 538 536 534 531 529 526 523
710 708 707 705 704 702 700 698 697 695 693 691 688 687 685 684 683 681 679 677 675 673 671 669 667 664 662 659 657 655 652 649 646 643 641 639 637 635 634 632 630 628 626 624 622 619 617 614 612 611 609 607 604 600 596 594 592 591 588 586 583 580 577 574 572 570 569 567 565 563 561 560 557 554 551 547 544 540 537 535 532 530 528 526 523 521
710 708 706 705 703 701 699 697 696 694 692 690 688 686 684 682 682 680 678 676 674 672 670 667 665 663 660 657 655 653 651 648 645 642 640 637 636 634 632 630 627 625 623 621 618 616 613 611 609 608 607 605 602 599 595 592 590 588 586 584 582 579 576 572 570 568 567 565 563 561 560 558 556 553 551 547 542 538 534 531 529 527 525 523 521 519
709 707 706 704 702 701 699 697 695 693 692 690 687 685 683 681 679 678 677 675 672 671 668 666 664 662 659 656 653 651 649 647 644 641 638 637 635 632 630 628 626 623 620 617 614 612 610 607 605 604 603 602 600 597 594 591 588 586 584 582 580 577 575 571 569 567 565 563 561 559 557 556 554 552 549 546 541 536 532 529 526 524 522 520 518 516
708 706 705 703 702 700 698 696 695 693 691 689 687 685 682 680 678 676 675 673 671 669 667 665 663 661 658 655 652 650 648 645 643 640 637 635 634 632 629 627 624 622 619 615 612 609 607 604 601 599 598 598 598 597 594 590 587 584 582 580 578 576 574 571 568 565 564 562 560 557 555 553 551 549 547 544 540 535 531 527 524 521 519 517 515 513